| time (UTC) | temp C | wind direction | speed KPH | gust KPH | rain 1hr cm | rain 24hr cm | rain mn cm | humidity % | barometer mb |
| 20260506122958 | 17 | 357 | 0.0 | 0.0 | 0.00 | 0.00 | 0.00 | 84 | 1006.9 |
| 20260506122455 | 17 | 201 | 1.6 | 1.6 | 0.00 | 0.00 | 0.00 | 84 | 1006.7 |
| 20260506121953 | 17 | 9 | 0.0 | 0.0 | 0.00 | 0.00 | 0.00 | 84 | 1006.7 |
| 20260506121450 | 17 | 45 | 0.0 | 0.0 | 0.00 | 0.00 | 0.00 | 84 | 1007.0 |
| 20260506120946 | 17 | 198 | 3.2 | 3.2 | 0.00 | 0.00 | 0.00 | 84 | 1007.0 |
| 20260506120444 | 17 | 357 | 0.0 | 0.0 | 0.00 | 0.00 | 0.00 | 84 | 1007.2 |
| 20260506115941 | 17 | 330 | 0.0 | 0.0 | 0.00 | 0.00 | 0.00 | 84 | 1007.2 |
| 20260506115439 | 17 | 163 | 0.0 | 0.0 | 0.00 | 0.00 | 0.00 | 84 | 1007.1 |
| 20260506114937 | 17 | 86 | 0.0 | 0.0 | 0.00 | 0.00 | 0.00 | 84 | 1007.0 |
| 20260506114434 | 17 | 226 | 0.0 | 0.0 | 0.00 | 0.00 | 0.00 | 84 | 1007.0 |
| 20260506113933 | 17 | 110 | 0.0 | 0.0 | 0.00 | 0.00 | 0.00 | 84 | 1007.1 |
| 20260506113430 | 17 | 301 | 0.0 | 0.0 | 0.00 | 0.00 | 0.00 | 84 | 1007.0 |
| 20260506112926 | 17 | 158 | 0.0 | 0.0 | 0.00 | 0.00 | 0.00 | 84 | 1006.5 |
| 20260506112424 | 17 | 332 | 0.0 | 0.0 | 0.00 | 0.00 | 0.00 | 85 | 1006.7 |
| 20260506111916 | 17 | 267 | 0.0 | 0.0 | 0.00 | 0.00 | 0.00 | 84 | 1006.8 |
| 20260506111414 | 17 | 214 | 0.0 | 0.0 | 0.00 | 0.00 | 0.00 | 84 | 1007.0 |
| 20260506110910 | 17 | 321 | 0.0 | 0.0 | 0.00 | 0.00 | 0.00 | 84 | 1006.8 |
| 20260506110408 | 17 | 248 | 0.0 | 0.0 | 0.00 | 0.00 | 0.00 | 85 | 1006.8 |
| 20260506105904 | 17 | 74 | 0.0 | 0.0 | 0.00 | 0.00 | 0.00 | 85 | 1007.0 |
| 20260506105401 | 16 | 193 | 0.0 | 0.0 | 0.00 | 0.00 | 0.00 | 85 | 1007.1 |
| 20260506104858 | 16 | 322 | 0.0 | 0.0 | 0.00 | 0.00 | 0.00 | 85 | 1007.0 |
| 20260506104356 | 16 | 206 | 0.0 | 0.0 | 0.00 | 0.00 | 0.00 | 85 | 1007.0 |
| 20260506103853 | 16 | 359 | 0.0 | 0.0 | 0.00 | 0.00 | 0.00 | 85 | 1007.0 |
| 20260506103351 | 16 | 77 | 0.0 | 0.0 | 0.00 | 0.00 | 0.00 | 85 | 1006.8 |
| 20260506102848 | 16 | 109 | 0.0 | 0.0 | 0.00 | 0.00 | 0.00 | 85 | 1006.7 |
| 20260506102346 | 16 | 74 | 1.6 | 3.2 | 0.00 | 0.00 | 0.00 | 84 | 1006.7 |
| 20260506101843 | 16 | 83 | 1.6 | 1.6 | 0.00 | 0.00 | 0.00 | 84 | 1006.7 |
| 20260506101339 | 16 | 194 | 3.2 | 4.8 | 0.00 | 0.00 | 0.00 | 83 | 1006.7 |
| 20260506100836 | 16 | 98 | 1.6 | 3.2 | 0.00 | 0.00 | 0.00 | 84 | 1006.5 |
| 20260506100335 | 16 | 217 | 1.6 | 1.6 | 0.00 | 0.00 | 0.00 | 83 | 1006.6 |
| 20260506095833 | 17 | 206 | 1.6 | 1.6 | 0.00 | 0.00 | 0.00 | 83 | 1006.5 |
| 20260506095330 | 17 | 247 | 3.2 | 3.2 | 0.00 | 0.00 | 0.00 | 82 | 1006.8 |
| 20260506094826 | 17 | 210 | 4.8 | 4.8 | 0.00 | 0.00 | 0.00 | 82 | 1006.6 |
| 20260506094325 | 17 | 219 | 3.2 | 3.2 | 0.00 | 0.00 | 0.00 | 82 | 1006.7 |
| 20260506093823 | 17 | 87 | 1.6 | 3.2 | 0.00 | 0.00 | 0.00 | 81 | 1006.5 |
| 20260506093320 | 17 | 184 | 4.8 | 4.8 | 0.00 | 0.00 | 0.00 | 81 | 1006.6 |
| 20260506092818 | 17 | 328 | 0.0 | 0.0 | 0.00 | 0.00 | 0.00 | 81 | 1006.5 |
| 20260506092315 | 17 | 203 | 3.2 | 3.2 | 0.00 | 0.00 | 0.00 | 80 | 1006.5 |
| 20260506091812 | 17 | 218 | 1.6 | 1.6 | 0.00 | 0.00 | 0.00 | 81 | 1006.4 |
| 20260506091310 | 17 | 199 | 3.2 | 4.8 | 0.00 | 0.00 | 0.00 | 80 | 1006.3 |
| 20260506090807 | 17 | 86 | 0.0 | 1.6 | 0.00 | 0.00 | 0.00 | 80 | 1006.5 |
| 20260506090304 | 17 | 191 | 0.0 | 1.6 | 0.00 | 0.00 | 0.00 | 79 | 1006.6 |
| 20260506085801 | 17 | 316 | 0.0 | 0.0 | 0.00 | 0.00 | 0.00 | 79 | 1006.4 |
| 20260506085257 | 17 | 225 | 0.0 | 1.6 | 0.00 | 0.00 | 0.00 | 78 | 1006.5 |
| 20260506084754 | 17 | 152 | 0.0 | 1.6 | 0.00 | 0.00 | 0.00 | 78 | 1006.9 |
| 20260506084250 | 17 | 327 | 0.0 | 0.0 | 0.00 | 0.00 | 0.00 | 77 | 1006.8 |
| 20260506083747 | 17 | 355 | 0.0 | 1.6 | 0.00 | 0.00 | 0.00 | 77 | 1006.6 |
| 20260506083245 | 17 | 19 | 0.0 | 1.6 | 0.00 | 0.00 | 0.00 | 77 | 1006.8 |
| 20260506082742 | 17 | 205 | 4.8 | 4.8 | 0.00 | 0.00 | 0.00 | 76 | 1006.9 |
| 20260506082237 | 18 | 266 | 0.0 | 0.0 | 0.00 | 0.00 | 0.00 | 75 | 1006.8 |
| 20260506081736 | 18 | 83 | 1.6 | 3.2 | 0.00 | 0.00 | 0.00 | 75 | 1006.8 |
| 20260506081233 | 18 | 79 | 0.0 | 0.0 | 0.00 | 0.00 | 0.00 | 75 | 1006.7 |
| 20260506080731 | 18 | 191 | 4.8 | 4.8 | 0.00 | 0.00 | 0.00 | 75 | 1006.8 |
| 20260506080227 | 18 | 94 | 0.0 | 1.6 | 0.00 | 0.00 | 0.00 | 74 | 1006.6 |
| 20260506073211 | 18 | 163 | 1.6 | 1.6 | 0.00 | 0.00 | 0.00 | 72 | 1006.6 |
| 20260506072708 | 18 | 138 | 0.0 | 1.6 | 0.00 | 0.00 | 0.00 | 71 | 1006.5 |
| 20260506072206 | 18 | 152 | 0.0 | 0.0 | 0.00 | 0.00 | 0.00 | 71 | 1006.6 |
| 20260506071703 | 18 | 336 | 0.0 | 0.0 | 0.00 | 0.00 | 0.00 | 72 | 1006.8 |
| 20260506071201 | 18 | 93 | 0.0 | 0.0 | 0.00 | 0.00 | 0.00 | 71 | 1006.8 |
| 20260506070657 | 18 | 119 | 0.0 | 0.0 | 0.00 | 0.00 | 0.00 | 71 | 1006.7 |
| 20260506070154 | 18 | 3 | 0.0 | 0.0 | 0.00 | 0.00 | 0.00 | 71 | 1006.9 |
| 20260506062131 | 18 | 312 | 0.0 | 0.0 | 0.00 | 0.00 | 0.00 | 69 | 1007.0 |
| 20260506061627 | 19 | 330 | 0.0 | 0.0 | 0.00 | 0.00 | 0.00 | 69 | 1007.0 |
| 20260506061125 | 19 | 355 | 0.0 | 0.0 | 0.00 | 0.00 | 0.00 | 68 | 1007.0 |
| 20260506060623 | 19 | 19 | 1.6 | 1.6 | 0.00 | 0.00 | 0.00 | 68 | 1007.0 |
| 20260506060120 | 19 | 211 | 0.0 | 0.0 | 0.00 | 0.00 | 0.00 | 68 | 1006.9 |
| 20260506051052 | 20 | 171 | 1.6 | 3.2 | 0.00 | 0.00 | 0.00 | 66 | 1007.5 |
| 20260506050550 | 20 | 193 | 0.0 | 0.0 | 0.00 | 0.00 | 0.00 | 66 | 1007.2 |
| 20260506045040 | 20 | 13 | 0.0 | 0.0 | 0.00 | 0.00 | 0.00 | 65 | 1007.6 |
| 20260506044538 | 20 | 165 | 1.6 | 3.2 | 0.00 | 0.00 | 0.00 | 65 | 1007.6 |
| 20260506044035 | 20 | 166 | 4.8 | 4.8 | 0.00 | 0.00 | 0.00 | 65 | 1007.6 |
| 20260506043532 | 20 | 219 | 0.0 | 1.6 | 0.00 | 0.00 | 0.00 | 66 | 1007.3 |
| 20260506043030 | 20 | 149 | 1.6 | 1.6 | 0.00 | 0.00 | 0.00 | 65 | 1007.6 |
| 20260506042529 | 20 | 299 | 0.0 | 0.0 | 0.00 | 0.00 | 0.00 | 65 | 1007.6 |
| 20260506042027 | 20 | 248 | 0.0 | 0.0 | 0.00 | 0.00 | 0.00 | 64 | 1007.5 |
| 20260506041525 | 20 | 194 | 0.0 | 0.0 | 0.00 | 0.00 | 0.00 | 64 | 1007.3 |
| 20260506041021 | 20 | 185 | 0.0 | 1.6 | 0.00 | 0.00 | 0.00 | 63 | 1007.5 |
| 20260506040519 | 20 | 24 | 1.6 | 1.6 | 0.00 | 0.00 | 0.00 | 64 | 1007.3 |
| 20260506040015 | 20 | 193 | 0.0 | 0.0 | 0.00 | 0.00 | 0.00 | 64 | 1007.2 |
| 20260506035512 | 20 | 17 | 0.0 | 1.6 | 0.00 | 0.00 | 0.00 | 65 | 1007.5 |
| 20260506035009 | 19 | 68 | 0.0 | 0.0 | 0.00 | 0.00 | 0.00 | 65 | 1007.3 |
| 20260506034506 | 19 | 326 | 0.0 | 0.0 | 0.00 | 0.00 | 0.00 | 65 | 1007.3 |
| 20260506034003 | 19 | 303 | 0.0 | 0.0 | 0.00 | 0.00 | 0.00 | 65 | 1007.3 |
| 20260506033500 | 19 | 9 | 0.0 | 0.0 | 0.00 | 0.00 | 0.00 | 65 | 1007.5 |
| 20260506032957 | 19 | 160 | 0.0 | 0.0 | 0.00 | 0.00 | 0.00 | 65 | 1007.3 |
| 20260506032455 | 20 | 343 | 0.0 | 0.0 | 0.00 | 0.00 | 0.00 | 64 | 1007.3 |
| 20260506031951 | 20 | 182 | 0.0 | 0.0 | 0.00 | 0.00 | 0.00 | 63 | 1007.0 |
| 20260506031449 | 20 | 17 | 0.0 | 1.6 | 0.00 | 0.00 | 0.00 | 62 | 1007.2 |
| 20260506030946 | 20 | 210 | 1.6 | 1.6 | 0.00 | 0.00 | 0.00 | 61 | 1007.5 |
| 20260506030444 | 20 | 99 | 3.2 | 4.8 | 0.00 | 0.00 | 0.00 | 62 | 1007.5 |
| 20260506025940 | 20 | 157 | 4.8 | 4.8 | 0.00 | 0.00 | 0.00 | 60 | 1007.5 |
| 20260506025437 | 20 | 266 | 0.0 | 0.0 | 0.00 | 0.00 | 0.00 | 60 | 1007.2 |
| 20260506024934 | 21 | 175 | 3.2 | 3.2 | 0.00 | 0.00 | 0.00 | 58 | 1007.2 |
| 20260506024431 | 21 | 338 | 1.6 | 1.6 | 0.00 | 0.00 | 0.00 | 57 | 1006.9 |
| 20260506023926 | 21 | 123 | 1.6 | 1.6 | 0.00 | 0.00 | 0.00 | 55 | 1007.2 |
| 20260506023424 | 21 | 75 | 0.0 | 0.0 | 0.00 | 0.00 | 0.00 | 55 | 1006.9 |
| 20260506022920 | 22 | 87 | 0.0 | 0.0 | 0.00 | 0.00 | 0.00 | 52 | 1007.0 |
| 20260506022418 | 22 | 57 | 0.0 | 0.0 | 0.00 | 0.00 | 0.00 | 51 | 1006.9 |
| 20260506021916 | 22 | 190 | 0.0 | 0.0 | 0.00 | 0.00 | 0.00 | 51 | 1006.9 |
| 20260506021413 | 22 | 149 | 0.0 | 1.6 | 0.00 | 0.00 | 0.00 | 50 | 1006.9 |
| 20260506020909 | 22 | 168 | 1.6 | 3.2 | 0.00 | 0.00 | 0.00 | 48 | 1006.7 |
| 20260506020408 | 22 | 6 | 0.0 | 0.0 | 0.00 | 0.00 | 0.00 | 49 | 1006.8 |
| 20260506015904 | 22 | 207 | 1.6 | 1.6 | 0.00 | 0.00 | 0.00 | 47 | 1006.8 |
| 20260506015402 | 23 | 322 | 0.0 | 0.0 | 0.00 | 0.00 | 0.00 | 45 | 1006.7 |
| 20260506014859 | 23 | 6 | 0.0 | 0.0 | 0.00 | 0.00 | 0.00 | 45 | 1006.6 |
| 20260506014355 | 23 | 282 | 1.6 | 1.6 | 0.00 | 0.00 | 0.00 | 42 | 1006.6 |
| 20260506013852 | 23 | 122 | 0.0 | 1.6 | 0.00 | 0.00 | 0.00 | 44 | 1006.7 |
| 20260506013350 | 23 | 257 | 0.0 | 0.0 | 0.00 | 0.00 | 0.00 | 43 | 1006.5 |
| 20260506012846 | 23 | 310 | 0.0 | 0.0 | 0.00 | 0.00 | 0.00 | 43 | 1006.3 |
| 20260506012343 | 23 | 242 | 1.6 | 1.6 | 0.00 | 0.00 | 0.00 | 42 | 1006.4 |
| 20260506011840 | 23 | 286 | 0.0 | 0.0 | 0.00 | 0.00 | 0.00 | 42 | 1006.5 |
| 20260506011337 | 23 | 222 | 1.6 | 1.6 | 0.00 | 0.00 | 0.00 | 43 | 1006.5 |
| 20260506010834 | 23 | 259 | 0.0 | 0.0 | 0.00 | 0.00 | 0.00 | 43 | 1006.2 |
| 20260506010332 | 23 | 107 | 0.0 | 0.0 | 0.00 | 0.00 | 0.00 | 41 | 1006.1 |
| 20260506005829 | 23 | 193 | 0.0 | 0.0 | 0.00 | 0.00 | 0.00 | 41 | 1006.2 |
| 20260506005326 | 24 | 193 | 1.6 | 1.6 | 0.00 | 0.00 | 0.00 | 42 | 1006.2 |
| 20260506004822 | 24 | 224 | 3.2 | 8.0 | 0.00 | 0.00 | 0.00 | 40 | 1006.2 |
| 20260506004319 | 25 | 289 | 0.0 | 0.0 | 0.00 | 0.00 | 0.00 | 40 | 1006.2 |
| 20260506003815 | 25 | 282 | 1.6 | 1.6 | 0.00 | 0.00 | 0.00 | 39 | 1006.1 |
| 20260506003312 | 25 | 284 | 1.6 | 1.6 | 0.00 | 0.00 | 0.00 | 38 | 1005.9 |
| 20260506002808 | 25 | 253 | 0.0 | 0.0 | 0.00 | 0.00 | 0.00 | 39 | 1005.9 |
| 20260506002306 | 25 | 267 | 1.6 | 1.6 | 0.00 | 0.00 | 0.00 | 39 | 1006.0 |
| 20260506001800 | 25 | 213 | 3.2 | 8.0 | 0.00 | 0.00 | 0.00 | 39 | 1005.9 |
| 20260506001258 | 25 | 215 | 1.6 | 3.2 | 0.00 | 0.00 | 0.00 | 38 | 1006.0 |
| 20260506000754 | 25 | 309 | 3.2 | 3.2 | 0.00 | 0.00 | 0.00 | 38 | 1005.8 |
| 20260506000254 | 25 | 219 | 1.6 | 3.2 | 0.00 | 0.00 | 0.00 | 38 | 1005.8 |
| 20260505235749 | 25 | 221 | 1.6 | 3.2 | 0.00 | 0.00 | 0.00 | 38 | 1005.7 |
| 20260505235247 | 25 | 217 | 1.6 | 1.6 | 0.00 | 0.00 | 0.00 | 38 | 1005.7 |
| 20260505234743 | 25 | 257 | 3.2 | 4.8 | 0.00 | 0.00 | 0.00 | 37 | 1005.4 |
| 20260505234241 | 25 | 266 | 0.0 | 0.0 | 0.00 | 0.00 | 0.00 | 37 | 1005.4 |
| 20260505233737 | 25 | 180 | 0.0 | 1.6 | 0.00 | 0.00 | 0.00 | 37 | 1005.3 |
| 20260505233236 | 25 | 162 | 1.6 | 3.2 | 0.00 | 0.00 | 0.00 | 37 | 1005.3 |
| 20260505232732 | 25 | 192 | 4.8 | 4.8 | 0.00 | 0.00 | 0.00 | 36 | 1005.1 |
| 20260505232230 | 25 | 247 | 1.6 | 3.2 | 0.00 | 0.00 | 0.00 | 37 | 1005.1 |
| 20260505231726 | 25 | 246 | 3.2 | 4.8 | 0.00 | 0.00 | 0.00 | 36 | 1005.1 |
| 20260505231225 | 26 | 212 | 0.0 | 0.0 | 0.00 | 0.00 | 0.00 | 37 | 1005.1 |
| 20260505230723 | 26 | 229 | 0.0 | 0.0 | 0.00 | 0.00 | 0.00 | 36 | 1005.1 |
| 20260505230219 | 26 | 204 | 3.2 | 3.2 | 0.00 | 0.00 | 0.00 | 36 | 1005.2 |
| 20260505225716 | 26 | 237 | 1.6 | 3.2 | 0.00 | 0.00 | 0.00 | 36 | 1004.9 |
| 20260505225213 | 26 | 274 | 0.0 | 1.6 | 0.00 | 0.00 | 0.00 | 37 | 1004.8 |
| 20260505224708 | 26 | 263 | 1.6 | 3.2 | 0.00 | 0.00 | 0.00 | 38 | 1004.6 |
| 20260505224206 | 26 | 264 | 1.6 | 1.6 | 0.00 | 0.00 | 0.00 | 37 | 1004.7 |
| 20260505223704 | 26 | 0 | 1.6 | 3.2 | 0.00 | 0.00 | 0.00 | 37 | 1004.5 |
| 20260505223159 | 26 | 191 | 1.6 | 3.2 | 0.00 | 0.00 | 0.00 | 37 | 1004.6 |
| 20260505222656 | 26 | 243 | 1.6 | 3.2 | 0.00 | 0.00 | 0.00 | 37 | 1004.4 |
| 20260505222152 | 26 | 213 | 1.6 | 3.2 | 0.00 | 0.00 | 0.00 | 37 | 1004.5 |
| 20260505221649 | 27 | 229 | 3.2 | 3.2 | 0.00 | 0.00 | 0.00 | 36 | 1004.5 |
| 20260505221146 | 27 | 165 | 1.6 | 1.6 | 0.00 | 0.00 | 0.00 | 36 | 1004.2 |
| 20260505220643 | 27 | 199 | 4.8 | 4.8 | 0.00 | 0.00 | 0.00 | 36 | 1004.1 |
| 20260505220141 | 27 | 287 | 4.8 | 4.8 | 0.00 | 0.00 | 0.00 | 36 | 1004.3 |
| 20260505215638 | 27 | 307 | 4.8 | 4.8 | 0.00 | 0.00 | 0.00 | 35 | 1004.2 |
| 20260505215136 | 27 | 203 | 1.6 | 3.2 | 0.00 | 0.00 | 0.00 | 36 | 1004.2 |
| 20260505214634 | 27 | 300 | 3.2 | 3.2 | 0.00 | 0.00 | 0.00 | 35 | 1004.2 |
| 20260505214130 | 27 | 269 | 8.0 | 12.9 | 0.00 | 0.00 | 0.00 | 36 | 1004.2 |
| 20260505213628 | 27 | 260 | 3.2 | 3.2 | 0.00 | 0.00 | 0.00 | 37 | 1004.4 |
| 20260505213125 | 27 | 300 | 4.8 | 8.0 | 0.00 | 0.00 | 0.00 | 36 | 1004.1 |
| 20260505212620 | 27 | 19 | 3.2 | 4.8 | 0.00 | 0.00 | 0.00 | 36 | 1004.0 |
| 20260505212119 | 27 | 265 | 1.6 | 1.6 | 0.00 | 0.00 | 0.00 | 35 | 1004.2 |
| 20260505211615 | 28 | 229 | 3.2 | 3.2 | 0.00 | 0.00 | 0.00 | 35 | 1004.1 |
| 20260505211112 | 28 | 333 | 4.8 | 11.3 | 0.00 | 0.00 | 0.00 | 35 | 1003.8 |
| 20260505210609 | 28 | 212 | 3.2 | 3.2 | 0.00 | 0.00 | 0.00 | 34 | 1003.9 |
| 20260505210106 | 28 | 189 | 4.8 | 8.0 | 0.00 | 0.00 | 0.00 | 35 | 1003.6 |
| 20260505205603 | 28 | 293 | 1.6 | 1.6 | 0.00 | 0.00 | 0.00 | 36 | 1003.9 |
| 20260505205101 | 28 | 328 | 3.2 | 4.8 | 0.00 | 0.00 | 0.00 | 35 | 1003.7 |
| 20260505204558 | 28 | 251 | 1.6 | 1.6 | 0.00 | 0.00 | 0.00 | 35 | 1003.9 |
| 20260505204056 | 28 | 190 | 6.4 | 17.7 | 0.00 | 0.00 | 0.00 | 36 | 1003.7 |
| 20260505203552 | 28 | 337 | 0.0 | 0.0 | 0.00 | 0.00 | 0.00 | 36 | 1003.8 |
| 20260505203049 | 28 | 148 | 3.2 | 8.0 | 0.00 | 0.00 | 0.00 | 36 | 1003.9 |
| 20260505202545 | 28 | 229 | 4.8 | 8.0 | 0.00 | 0.00 | 0.00 | 37 | 1003.9 |
| 20260505202041 | 28 | 228 | 3.2 | 3.2 | 0.00 | 0.00 | 0.00 | 38 | 1004.1 |
| 20260505201538 | 28 | 308 | 0.0 | 1.6 | 0.00 | 0.00 | 0.00 | 40 | 1004.0 |
| 20260505201036 | 27 | 204 | 4.8 | 9.7 | 0.00 | 0.00 | 0.00 | 38 | 1004.3 |
| 20260505200533 | 27 | 6 | 1.6 | 1.6 | 0.00 | 0.00 | 0.00 | 37 | 1004.1 |
| 20260505200030 | 27 | 215 | 3.2 | 3.2 | 0.00 | 0.00 | 0.00 | 37 | 1004.4 |
| 20260505195526 | 28 | 259 | 1.6 | 3.2 | 0.00 | 0.00 | 0.00 | 35 | 1004.3 |
| 20260505195024 | 29 | 317 | 3.2 | 3.2 | 0.00 | 0.00 | 0.00 | 35 | 1004.5 |
| 20260505194521 | 30 | 218 | 4.8 | 9.7 | 0.00 | 0.00 | 0.00 | 35 | 1004.3 |
| 20260505194016 | 28 | 265 | 3.2 | 3.2 | 0.00 | 0.00 | 0.00 | 37 | 1004.7 |
| 20260505193514 | 29 | 258 | 3.2 | 4.8 | 0.00 | 0.00 | 0.00 | 36 | 1004.5 |
| 20260505193011 | 28 | 241 | 4.8 | 8.0 | 0.00 | 0.00 | 0.00 | 37 | 1004.4 |
| 20260505192509 | 28 | 246 | 4.8 | 8.0 | 0.00 | 0.00 | 0.00 | 36 | 1004.6 |
| 20260505192006 | 28 | 359 | 3.2 | 3.2 | 0.00 | 0.00 | 0.00 | 37 | 1004.6 |
| 20260505191505 | 28 | 242 | 1.6 | 3.2 | 0.00 | 0.00 | 0.00 | 37 | 1004.6 |
| 20260505191002 | 28 | 215 | 1.6 | 1.6 | 0.00 | 0.00 | 0.00 | 38 | 1004.8 |
| 20260505190456 | 28 | 254 | 1.6 | 3.2 | 0.00 | 0.00 | 0.00 | 39 | 1004.9 |
| 20260505185952 | 28 | 240 | 6.4 | 11.3 | 0.00 | 0.00 | 0.00 | 38 | 1004.7 |
| 20260505185450 | 27 | 244 | 3.2 | 4.8 | 0.00 | 0.00 | 0.00 | 39 | 1004.9 |
| 20260505184946 | 27 | 224 | 1.6 | 1.6 | 0.00 | 0.00 | 0.00 | 42 | 1005.2 |
| 20260505184443 | 27 | 238 | 4.8 | 8.0 | 0.00 | 0.00 | 0.00 | 42 | 1004.8 |
| 20260505183939 | 28 | 213 | 3.2 | 4.8 | 0.00 | 0.00 | 0.00 | 42 | 1005.3 |
| 20260505183436 | 28 | 305 | 3.2 | 4.8 | 0.00 | 0.00 | 0.00 | 45 | 1005.3 |
| 20260505182933 | 27 | 230 | 1.6 | 3.2 | 0.00 | 0.00 | 0.00 | 43 | 1005.4 |
| 20260505182430 | 27 | 199 | 4.8 | 9.7 | 0.00 | 0.00 | 0.00 | 43 | 1005.4 |
| 20260505181926 | 27 | 207 | 1.6 | 1.6 | 0.00 | 0.00 | 0.00 | 45 | 1005.5 |
| 20260505181424 | 27 | 204 | 4.8 | 4.8 | 0.00 | 0.00 | 0.00 | 43 | 1005.3 |
| 20260505180921 | 27 | 165 | 8.0 | 11.3 | 0.00 | 0.00 | 0.00 | 44 | 1005.2 |
| 20260505180417 | 26 | 229 | 6.4 | 9.7 | 0.00 | 0.00 | 0.00 | 43 | 1005.4 |
| 20260505175913 | 26 | 260 | 3.2 | 3.2 | 0.00 | 0.00 | 0.00 | 44 | 1005.8 |
| 20260505175404 | 27 | 240 | 1.6 | 1.6 | 0.00 | 0.00 | 0.00 | 45 | 1005.8 |
| 20260505174901 | 27 | 240 | 3.2 | 3.2 | 0.00 | 0.00 | 0.00 | 43 | 1005.7 |
| 20260505174358 | 27 | 214 | 1.6 | 3.2 | 0.00 | 0.00 | 0.00 | 43 | 1005.7 |
| 20260505173854 | 27 | 266 | 4.8 | 8.0 | 0.00 | 0.00 | 0.00 | 43 | 1005.6 |
| 20260505173351 | 27 | 226 | 1.6 | 1.6 | 0.00 | 0.00 | 0.00 | 43 | 1005.7 |
| 20260505172848 | 27 | 193 | 11.3 | 14.5 | 0.00 | 0.00 | 0.00 | 44 | 1005.7 |
| 20260505172346 | 26 | 214 | 4.8 | 4.8 | 0.00 | 0.00 | 0.00 | 44 | 1005.7 |
| 20260505171845 | 26 | 223 | 1.6 | 3.2 | 0.00 | 0.00 | 0.00 | 45 | 1005.7 |
| 20260505171342 | 26 | 256 | 1.6 | 3.2 | 0.00 | 0.00 | 0.00 | 47 | 1005.8 |
| 20260505170839 | 25 | 207 | 1.6 | 1.6 | 0.00 | 0.00 | 0.00 | 49 | 1005.8 |
| 20260505170336 | 26 | 25 | 1.6 | 1.6 | 0.00 | 0.00 | 0.00 | 50 | 1006.0 |
| 20260505165831 | 25 | 188 | 4.8 | 4.8 | 0.00 | 0.00 | 0.00 | 47 | 1006.2 |
| 20260505165327 | 25 | 210 | 3.2 | 3.2 | 0.00 | 0.00 | 0.00 | 50 | 1006.3 |
| 20260505164822 | 26 | 20 | 4.8 | 9.7 | 0.00 | 0.00 | 0.00 | 49 | 1006.3 |
| 20260505164319 | 26 | 340 | 4.8 | 8.0 | 0.00 | 0.00 | 0.00 | 51 | 1006.5 |
| 20260505163818 | 26 | 200 | 3.2 | 3.2 | 0.00 | 0.00 | 0.00 | 55 | 1006.6 |
| 20260505163316 | 26 | 151 | 1.6 | 3.2 | 0.00 | 0.00 | 0.00 | 54 | 1006.6 |
| 20260505162814 | 26 | 192 | 3.2 | 3.2 | 0.00 | 0.00 | 0.00 | 49 | 1007.0 |
| 20260505162310 | 26 | 332 | 4.8 | 4.8 | 0.00 | 0.00 | 0.00 | 50 | 1006.5 |
| 20260505161807 | 26 | 293 | 0.0 | 0.0 | 0.00 | 0.00 | 0.00 | 55 | 1006.9 |
| 20260505161305 | 26 | 249 | 1.6 | 1.6 | 0.00 | 0.00 | 0.00 | 51 | 1007.2 |
| 20260505160802 | 25 | 262 | 1.6 | 1.6 | 0.00 | 0.00 | 0.00 | 51 | 1007.1 |
| 20260505160300 | 25 | 226 | 3.2 | 4.8 | 0.00 | 0.00 | 0.00 | 51 | 1007.6 |
| 20260505153238 | 25 | 233 | 1.6 | 3.2 | 0.00 | 0.00 | 0.00 | 52 | 1007.5 |
| 20260505152735 | 25 | 352 | 1.6 | 1.6 | 0.00 | 0.00 | 0.00 | 53 | 1007.5 |
| 20260505152231 | 25 | 246 | 0.0 | 0.0 | 0.00 | 0.00 | 0.00 | 54 | 1007.6 |
| 20260505151726 | 25 | 272 | 0.0 | 0.0 | 0.00 | 0.00 | 0.00 | 52 | 1007.6 |
| 20260505151224 | 25 | 252 | 1.6 | 1.6 | 0.00 | 0.00 | 0.00 | 52 | 1007.8 |
| 20260505150720 | 24 | 305 | 1.6 | 3.2 | 0.00 | 0.00 | 0.00 | 54 | 1007.6 |
| 20260505150217 | 25 | 210 | 1.6 | 1.6 | 0.00 | 0.00 | 0.00 | 53 | 1007.9 |
| 20260505140645 | 23 | 211 | 1.6 | 1.6 | 0.00 | 0.00 | 0.00 | 54 | 1008.1 |
| 20260505140142 | 23 | 283 | 3.2 | 3.2 | 0.00 | 0.00 | 0.00 | 53 | 1008.3 |
| 20260505130106 | 19 | 329 | 0.0 | 1.6 | 0.00 | 0.00 | 0.00 | 71 | 1008.0 |
| 20260505124555 | 17 | 138 | 0.0 | 0.0 | 0.00 | 0.00 | 0.00 | 74 | 1007.7 |
| 20260505124051 | 16 | 277 | 0.0 | 0.0 | 0.00 | 0.00 | 0.00 | 80 | 1008.2 |
| 20260505123548 | 16 | 304 | 0.0 | 0.0 | 0.00 | 0.00 | 0.00 | 82 | 1008.2 |